Location: Blangy-Tronville
(49.8790°N, 2.4226°E)
Time: 21:11:38
(UTC+00:00)

Okean 1 Rocket - Pass Details

Date: 18 November 2025
Orbit: 599 x 628 km, 82.5° (Epoch: 10 December)

Event Time Altitude Azimuth Distance (km) Brightness Sun altitude
Rises 18:00:46 0° 176° (S) 2,888 6.6 -18.7°
Reaches altitude 10° 18:03:01 10° 172° (S) 1,983 5.6 -19.1°
Maximum altitude 18:07:18 55° 95° (E) 744 3.1 -19.8°
Enters shadow 18:08:24 42° 46° (NE) 880 3.4 -19.9°
